Terminal Aerodrome Forecast
Issued by NWS

Home | Current Version | Previous Version | Graphics & Text | Print | Product List | Glossary On
Versions: 1 2 3 4 5 6 7 8 9 10 11 12 13
000
FTUS45 KGGW 181600 AAA
TAFSDY
TAF AMD
KSDY 181638Z 1817/1912 30009G15KT P6SM SCT025
     FM181900 32011G18KT P6SM SKC
     FM190100 VRB03KT P6SM SKC
      AMD LTD TO CLD VIS AND WIND=

USA.gov is the U.S. government's official web portal to all federal, state and local government web resources and services.